Tracking 28920 objects as of 26-May-2024
HD Live streaming from Space Station
objects crossing your sky now

STARLINK-6191

Track STARLINK-6191 now!
10-day predictions
STARLINK-6191 is classified as:


NORAD ID: 56378
Int'l Code: 2023-061E
Perigee: 565.3 km
Apogee: 567.1 km
Inclination: 43.0 °
Period: 95.8 minutes
Semi major axis: 6937 km
RCS: Unknown
Launch date: May 4, 2023
Source: United States (US)
Launch site: AIR FORCE EASTERN TEST RANGE (AFETR)
Your satellite tracking list
Your tracking list is empty




NASA's NSSDC Master Catalog

Two Line Element Set (TLE):
1 56378U 23061E   24147.46622887  .00000697  00000-0  66643-4 0  9993
2 56378  43.0038 141.4367 0001342 286.7956  73.2739 15.02538114 58642
Source of the keplerian elements: AFSPC